User: anonymous   Login
Location: Henham
(51.9333°N, 0.2500°E)
Time: 17:57:15
(UTC+00:00)
Language:

SJ 16-02 - Orbit

View from above orbital plane
View from above orbital plane
View from above satellite
View from above satellite

Ground track
Ground track

The orbit data is extracted from the following two-line orbital elements,

1 41634U 16043A   19349.42631781  .00000110  00000-0  15791-4 0  9999
2 41634  75.0050  58.6095 0007224  12.8455 347.2893 14.85626218187768
Epoch (UTC): 15 December 2019 10:13:53
Eccentricity: 0.0007224
inclination: 75.0050°
perigee height: 606 km
apogee height: 616 km
right ascension of ascending node: 58.6095°
argument of perigee: 12.8455°
revolutions per day: 14.85626218
mean anomaly at epoch: 347.2893°
orbit number at epoch: 18776

The dashed part of the orbit path shows where the satellite is in the earth's shadow,  

DLR